OE7MFI-13 Weather Reports


time (UTC)temp
C
wind
direction
speed
KPH
gust
KPH
rain 1hr
cm
rain 24hr
cm
rain mn
cm
humidity
%
barometer
mb
20260507203231 8 0.0 0.0 0.00 0.00 0.00 91
20260507202225 8 0.0 0.0 0.00 0.00 0.00 91
20260507201210 8 0.0 0.0 0.00 0.00 0.00 90
20260507200203 8 0.0 0.0 0.00 0.00 0.00 90
20260507195211 8 0.0 0.0 0.00 0.00 0.00 90
20260507194204 8 0.0 0.0 0.00 0.00 0.00 90
20260507193211 8 0.0 0.0 0.00 0.00 0.00 89
20260507192204 8 0.0 0.0 0.00 0.00 0.00 89
20260507191234 8 0.0 0.0 0.00 0.00 0.00 89
20260507190203 8 0.0 0.0 0.00 0.00 0.00 88
20260507185232 9 0.0 0.0 0.00 0.00 0.00 88
20260507184203 9 251 0.0 0.0 0.00 0.00 0.00 88
20260507183211 10 264 0.0 0.0 0.00 0.00 0.00 87
20260507182203 10 0.0 0.0 0.00 0.00 0.00 86
20260507181210 10 0.0 0.0 0.00 0.00 0.00 84
20260507180204 10 342 0.0 0.0 0.00 0.00 0.00 88
20260507175211 11 223 0.0 1.6 0.00 0.00 0.00 85
20260507174245 11 0.0 0.0 0.00 0.00 0.00 84
20260507173211 11 0.0 0.0 0.00 0.00 0.00 83
20260507172204 12 0.0 0.0 0.00 0.00 0.00 80
20260507171210 12 0.0 0.0 0.00 0.00 0.00 78
20260507170204 12 0.0 0.0 0.00 0.00 0.00 78
20260507165210 12 0.0 0.0 0.00 0.00 0.00 78
20260507164203 12 0.0 0.0 0.00 0.00 0.00 79
20260507163233 12 0.0 0.0 0.00 0.00 0.00 76
20260507162223 11 0.0 0.0 0.00 0.00 0.00 74
20260507161226 12 0.0 0.0 0.00 0.00 0.00 74
20260507160252 12 0.0 0.0 0.00 0.00 0.00 74
20260507155211 12 0.0 0.0 0.00 0.00 0.00 78
20260507154202 12 0.0 0.0 0.00 0.00 0.00 76
20260507153227 11 0.0 0.0 0.00 0.00 0.00 76
20260507152238 11 0.0 0.0 0.00 0.00 0.00 78
20260507151211 10 0.0 0.0 0.00 0.00 0.00 82
20260507150244 10 228 0.0 0.0 0.00 0.00 0.00 85
20260507145210 10 237 0.0 0.0 0.00 0.00 0.00 86
20260507144204 10 185 0.0 0.0 0.00 0.00 0.00 84
20260507143211 10 286 0.0 0.0 0.00 0.00 0.00 83
20260507142203 10 0.0 0.0 0.00 0.00 0.00 83
20260507141227 10 16 0.0 0.0 0.00 0.00 0.00 83
20260507140203 11 291 0.0 1.6 0.00 0.00 0.00 81
20260507135227 11 352 0.0 1.6 0.00 0.00 0.00 81
20260507134202 11 262 0.0 1.6 0.00 0.00 0.00 78
20260507133230 12 180 0.0 1.6 0.00 0.00 0.00 71
20260507132224 13 241 0.0 1.6 0.00 0.00 0.00 68
20260507131251 13 323 0.0 1.6 0.00 0.00 0.00 66
20260507130205 14 274 0.0 0.0 0.00 0.00 0.00 68
20260507125210 14 270 0.0 0.0 0.00 0.00 0.00 68
20260507124203 13 30 0.0 1.6 0.00 0.00 0.00 65
20260507123211 14 184 0.0 1.6 0.00 0.00 0.00 60
20260507122205 15 233 0.0 0.0 0.00 0.00 0.00 61
20260507121211 14 227 0.0 0.0 0.00 0.00 0.00 62
20260507120204 13 263 0.0 0.0 0.00 0.00 0.00 64
20260507115211 13 265 0.0 0.0 0.00 0.00 0.00 63
20260507114202 13 76 0.0 0.0 0.00 0.00 0.00 68
20260507113227 13 62 0.0 0.0 0.00 0.00 0.00 69
20260507112202 11 301 0.0 0.0 0.00 0.00 0.00 75
20260507111211 11 254 0.0 1.6 0.00 0.00 0.00 74
20260507110203 11 255 0.0 1.6 0.00 0.00 0.00 77
20260507105210 11 91 0.0 1.6 0.00 0.00 0.00 74
20260507104219 11 288 0.0 1.6 0.00 0.00 0.00 75
20260507103211 11 119 0.0 1.6 0.00 0.00 0.00 73
20260507102202 11 208 0.0 1.6 0.00 0.00 0.00 67
20260507101232 12 157 0.0 1.6 0.00 0.00 0.00 65
20260507100202 13 227 1.6 3.2 0.00 0.00 0.00 64
20260507095211 13 241 0.0 1.6 0.00 0.00 0.00 68
20260507094204 12 262 1.6 1.6 0.00 0.00 0.00 69
20260507093210 13 286 0.0 1.6 0.00 0.00 0.00 62
20260507092202 14 284 0.0 1.6 0.00 0.00 0.00 59
20260507091211 13 288 1.6 1.6 0.00 0.00 0.00 60
20260507090225 13 285 0.0 1.6 0.00 0.00 0.00 63
20260507085211 13 92 0.0 1.6 0.00 0.00 0.00 64
20260507084203 12 255 0.0 1.6 0.00 0.00 0.00 64
20260507083211 12 272 0.0 1.6 0.00 0.00 0.00 65
20260507082204 12 245 0.0 1.6 0.00 0.00 0.00 67
20260507081212 12 260 0.0 1.6 0.00 0.00 0.00 67
20260507080223 12 278 0.0 1.6 0.00 0.00 0.00 67
20260507075212 12 262 0.0 0.0 0.00 0.00 0.00 67
20260507074205 12 255 0.0 0.0 0.00 0.00 0.00 70
20260507073210 12 298 0.0 1.6 0.00 0.00 0.00 72
20260507072218 12 262 0.0 0.0 0.00 0.00 0.00 73
20260507071214 11 0.0 0.0 0.00 0.00 0.00 75
20260507070203 11 0.0 0.0 0.00 0.00 0.00 79
20260507065211 11 0.0 0.0 0.00 0.00 0.00 78
20260507064204 11 0.0 0.0 0.00 0.00 0.00 81
20260507063211 11 0.0 0.0 0.00 0.00 0.00 82
20260507062204 10 0.0 0.0 0.00 0.00 0.00 83
20260507061211 9 0.0 0.0 0.00 0.00 0.00 87
20260507060202 8 0.0 0.0 0.00 0.00 0.00 87
20260507055231 8 232 0.0 0.0 0.00 0.00 0.00 87
20260507054204 9 0.0 0.0 0.00 0.00 0.00 87
20260507053210 8 0.0 0.0 0.00 0.00 0.00 88
20260507052306 8 256 0.0 0.0 0.00 0.00 0.00 88
20260507051210 8 0.0 0.0 0.00 0.00 0.00 89
20260507050223 8 0.0 0.0 0.00 0.00 0.00 89
20260507045210 7 0.0 0.0 0.00 0.00 0.00 89
20260507044204 7 109 0.0 0.0 0.00 0.00 0.00 89
20260507043212 7 0.0 0.0 0.00 0.00 0.00 89
20260507042202 7 0.0 0.0 0.00 0.00 0.00 89
20260507041210 7 0.0 0.0 0.00 0.00 0.00 89
20260507040202 7 0.0 0.0 0.00 0.00 0.00 89
20260507035210 7 0.0 0.0 0.00 0.00 0.00 90
20260507034204 7 0.0 0.0 0.00 0.00 0.00 90
20260507033211 7 0.0 0.0 0.00 0.00 0.00 90
20260507032224 7 0.0 0.0 0.00 0.00 0.00 89
20260507031211 7 0.0 0.0 0.00 0.00 0.00 89
20260507030203 7 0.0 0.0 0.00 0.00 0.00 89
20260507025226 7 0.0 0.0 0.00 0.00 0.00 89
20260507024202 7 0.0 0.0 0.00 0.00 0.00 89
20260507023252 7 0.0 0.0 0.00 0.00 0.00 89
20260507022222 7 0.0 0.0 0.00 0.00 0.00 90
20260507021213 7 0.0 0.0 0.00 0.00 0.00 90
20260507020244 7 75 0.0 0.0 0.00 0.00 0.00 90
20260507015210 7 0.0 0.0 0.00 0.00 0.00 89
20260507014205 7 0.0 0.0 0.00 0.00 0.00 89
20260507013230 7 0.0 0.0 0.00 0.00 0.00 90
20260507012204 7 246 0.0 0.0 0.00 0.00 0.00 90
20260507011212 7 0.0 0.0 0.00 0.00 0.00 89
20260507010202 7 0.0 0.0 0.00 0.00 0.00 89
20260507005212 7 0.0 0.0 0.00 0.00 0.00 89
20260507004224 7 0.0 0.0 0.00 0.00 0.00 89
20260507003211 7 0.0 0.0 0.00 0.00 0.00 89
20260507002222 7 0.0 0.0 0.00 0.00 0.00 89
20260507001210 7 0.0 0.0 0.00 0.00 0.00 87
20260507000204 7 0.0 0.0 0.00 0.00 0.00 88
20260506235210 7 0.0 0.0 0.00 0.00 0.00 88
20260506234203 7 0.0 0.0 0.00 0.00 0.00 87
20260506233230 8 0.0 0.0 0.00 0.00 0.00 87
20260506232203 8 0.0 0.0 0.00 0.00 0.00 85
20260506231210 8 0.0 0.0 0.00 0.00 0.00 85
20260506230204 9 0.0 0.0 0.00 0.00 0.00 84
20260506225251 9 0.0 0.0 0.00 0.00 0.00 83
20260506224202 10 0.0 0.0 0.00 0.00 0.00 84
20260506223210 9 0.0 0.0 0.00 0.00 0.00 84
20260506222202 10 0.0 0.0 0.00 0.00 0.00 83
20260506221210 10 0.0 0.0 0.00 0.00 0.00 83
20260506220205 10 0.0 0.0 0.00 0.00 0.00 82
20260506215230 10 0.0 0.0 0.00 0.00 0.00 82
20260506214202 10 0.0 0.0 0.00 0.00 0.00 82
20260506213210 10 0.0 0.0 0.00 0.00 0.00 82
20260506212202 10 50 0.0 1.6 0.00 0.00 0.00 78
20260506211210 10 87 0.0 0.0 0.00 0.00 0.00 82
20260506210202 10 237 0.0 0.0 0.00 0.00 0.00 85
20260506205210 10 0.0 0.0 0.00 0.00 0.00 85
20260506204202 10 321 0.0 0.0 0.00 0.00 0.00 85